Time,TemperatureF,DewpointF,PressureIn,WindDirection,WindDirectionDegrees,WindSpeedMPH,WindSpeedGustMPH,Humidity,HourlyPrecipIn,Conditions,Clouds,dailyrainin,SoftwareType,DateUTC
2014-12-28 00:22:00,27.0,18.0,30.27,NNW,342,0.0,0.0,68,0.00,,,0.00,,2014-12-28 08:22:00,
2014-12-28 00:52:00,27.0,18.0,30.26,NNW,343,0.0,2.0,69,0.00,,,0.00,,2014-12-28 08:52:00,
2014-12-28 01:22:00,28.0,19.0,30.26,NNW,343,0.0,0.0,69,0.00,,,0.00,,2014-12-28 09:22:00,
2014-12-28 01:53:00,28.0,19.0,30.25,NNW,342,0.0,3.0,68,0.00,,,0.00,,2014-12-28 09:53:00,
2014-12-28 02:23:00,29.0,20.0,30.25,NNW,343,0.0,0.0,68,0.00,,,0.00,,2014-12-28 10:23:00,
2014-12-28 02:53:00,29.0,19.0,30.24,NNW,343,0.0,0.0,67,0.00,,,0.00,,2014-12-28 10:53:00,
2014-12-28 03:22:00,29.0,19.0,30.23,NNW,342,0.0,3.0,67,0.00,,,0.00,,2014-12-28 11:22:00,
2014-12-28 03:52:00,29.0,20.0,30.22,NNW,343,0.0,4.0,68,0.00,,,0.00,,2014-12-28 11:52:00,
2014-12-28 04:22:00,29.0,20.0,30.20,NNW,342,0.0,0.0,68,0.00,,,0.00,,2014-12-28 12:22:00,
2014-12-28 04:52:00,29.0,20.0,30.22,NNW,343,0.0,0.0,68,0.00,,,0.00,,2014-12-28 12:52:00,
2014-12-28 05:22:00,28.0,19.0,30.22,NNW,342,0.0,0.0,69,0.00,,,0.00,,2014-12-28 13:22:00,
2014-12-28 05:52:00,27.0,18.0,30.21,NNW,342,0.0,0.0,69,0.00,,,0.00,,2014-12-28 13:52:00,
2014-12-28 06:22:00,27.0,18.0,30.21,NNW,342,0.0,4.0,69,0.00,,,0.00,,2014-12-28 14:22:00,
2014-12-28 06:52:00,27.0,18.0,30.21,NNW,342,3.0,6.0,68,0.00,,,0.00,,2014-12-28 14:52:00,
2014-12-28 07:22:00,27.0,17.0,30.21,NNW,342,3.0,4.0,66,0.00,,,0.00,,2014-12-28 15:22:00,
2014-12-28 07:53:00,27.0,17.0,30.21,NNW,342,0.0,0.0,66,0.00,,,0.00,,2014-12-28 15:53:00,
2014-12-28 08:23:00,27.0,18.0,30.22,NNW,342,0.0,0.0,69,0.00,,,0.00,,2014-12-28 16:23:00,
2014-12-28 08:54:00,33.0,20.0,30.22,NNW,342,0.0,4.0,59,0.00,,,0.00,,2014-12-28 16:54:00,
2014-12-28 09:23:00,37.0,20.0,30.22,NNW,342,0.0,0.0,50,0.00,,,0.00,,2014-12-28 17:23:00,
2014-12-28 09:52:00,39.0,23.0,30.21,NNW,342,0.0,0.0,52,0.00,,,0.00,,2014-12-28 17:52:00,
2014-12-28 10:22:00,41.0,23.0,30.23,NNW,342,0.0,0.0,48,0.00,,,0.00,,2014-12-28 18:22:00,
2014-12-28 10:53:00,41.0,24.0,30.22,NNW,342,3.0,5.0,50,0.00,,,0.00,,2014-12-28 18:53:00,
2014-12-28 11:21:00,42.0,23.0,30.21,NNW,342,2.0,4.0,47,0.00,,,0.00,,2014-12-28 19:21:00,
2014-12-28 11:52:00,44.0,23.0,30.17,NNW,343,1.0,4.0,44,0.00,,,0.00,,2014-12-28 19:52:00,
2014-12-28 12:22:00,44.0,23.0,30.16,NNW,342,1.0,6.0,44,0.00,,,0.00,,2014-12-28 20:22:00,
2014-12-28 12:52:00,46.0,25.0,30.14,NNW,342,1.0,3.0,43,0.00,,,0.00,,2014-12-28 20:52:00,
2014-12-28 13:21:00,47.0,25.0,30.12,NNW,342,0.0,4.0,41,0.00,,,0.00,,2014-12-28 21:21:00,
2014-12-28 13:53:00,48.0,24.0,30.13,NNW,342,2.0,4.0,39,0.00,,,0.00,,2014-12-28 21:53:00,
2014-12-28 14:23:00,48.0,24.0,30.12,NNW,343,2.0,4.0,38,0.00,,,0.00,,2014-12-28 22:23:00,
2014-12-28 14:53:00,48.0,24.0,30.10,NNW,343,0.0,2.0,38,0.00,,,0.00,,2014-12-28 22:53:00,
2014-12-28 15:22:00,49.0,23.0,30.10,NNW,342,3.0,5.0,35,0.00,,,0.00,,2014-12-28 23:22:00,
2014-12-28 15:53:00,50.0,16.0,30.08,North,350,11.0,15.0,26,0.00,,,0.00,,2014-12-28 23:53:00,
2014-12-28 16:22:00,49.0,16.0,30.09,West,269,3.0,11.0,27,0.00,,,0.00,,2014-12-29 00:22:00,
2014-12-28 16:52:00,47.0,16.0,30.08,West,271,0.0,0.0,29,0.00,,,0.00,,2014-12-29 00:52:00,
2014-12-28 17:21:00,43.0,15.0,30.09,WSW,252,2.0,5.0,32,0.00,,,0.00,,2014-12-29 01:21:00,
2014-12-28 17:52:00,43.0,13.0,30.09,North,5,4.0,17.0,29,0.00,,,0.00,,2014-12-29 01:52:00,
2014-12-28 18:22:00,43.0,14.0,30.09,NW,308,3.0,9.0,30,0.00,,,0.00,,2014-12-29 02:22:00,
2014-12-28 18:52:00,42.0,13.0,30.09,NNW,328,2.0,5.0,30,0.00,,,0.00,,2014-12-29 02:52:00,
2014-12-28 19:11:00,41.0,13.0,30.09,WNW,296,7.0,11.0,32,0.00,,,0.00,,2014-12-29 03:11:00,
2014-12-28 19:22:00,41.0,13.0,30.09,WNW,296,7.0,11.0,32,0.00,,,0.00,,2014-12-29 03:22:00,
2014-12-28 19:53:00,40.0,14.0,30.12,West,274,4.0,11.0,34,0.00,,,0.00,,2014-12-29 03:53:00,
2014-12-28 20:22:00,38.0,13.0,30.12,SW,217,2.0,9.0,35,0.00,,,0.00,,2014-12-29 04:22:00,
2014-12-28 20:52:00,35.0,13.0,30.13,SSW,198,3.0,5.0,40,0.00,,,0.00,,2014-12-29 04:52:00,
2014-12-28 21:22:00,34.0,13.0,30.14,SW,224,1.0,5.0,41,0.00,,,0.00,,2014-12-29 05:22:00,
2014-12-28 21:53:00,32.0,13.0,30.14,SW,223,1.0,2.0,44,0.00,,,0.00,,2014-12-29 05:53:00,
2014-12-28 22:22:00,35.0,13.0,30.14,West,281,4.0,9.0,40,0.00,,,0.00,,2014-12-29 06:22:00,
2014-12-28 22:52:00,36.0,10.0,30.14,West,265,1.0,7.0,34,0.00,,,0.00,,2014-12-29 06:52:00,